Regional Weather Roundup
Issued by NWS Cleveland, OH

Home | Current Version | Previous Version | Graphics & Text | Print | Product List | Glossary On
Versions: 1 2 3 4 5 6 7 8 9 10 11 12 13 14 15 16 17 18 19 20 21 22 23 24 25 26 27 28 29 30 31 32 33 34 35 36 37 38 39 40 41 42 43 44 45 46 47 48 49 50
000
ASUS41 KCLE 190002
RWRCLE
OHIO REGIONAL WEATHER ROUNDUP
NATIONAL WEATHER SERVICE CLEVELAND, OH
700 PM EST THU DEC 18 2014

NOTE: "FAIR" INDICATES FEW OR NO CLOUDS BELOW 12,000 FEET WITH NO
SIGNIFICANT WEATHER AND/OR OBSTRUCTIONS TO VISIBILITY.

OHZ001>008-015>018-024>027-034-035-043-044-190100-
   NORTHWEST OHIO

CITY           SKY/WX    TMP DP  RH WIND       PRES   REMARKS
DEFIANCE       CLOUDY    29  24  82 VRB5      30.22R WCI  24
FINDLAY        CLOUDY    29  25  85 W9        30.19S WCI  20
TOLEDO EXPRESS CLOUDY    30  24  78 W9        30.19R WCI  22
TOLEDO EXEC    CLOUDY    31  25  78 W9        30.20R WCI  23
LIMA           CLOUDY    31  23  72 W6        30.20R WCI  25
$$

OHZ009>014-019>023-028>033-038-089-190100-
   NORTHEAST OHIO

CITY           SKY/WX    TMP DP  RH WIND       PRES   REMARKS
CLE-HOPKINS    FLURRIES  29  25  85 SW7       30.20S WCI  22
CLE-LAKEFRONT  CLOUDY    31  25  78 SW9       30.17S WCI  23
CUY CO. ARPT   CLOUDY    32  28  86 W12       30.16S WCI  23
LORAIN-ELYRIA  CLOUDY    29  26  89 W8        30.18S WCI  21
ASHTABULA      CLOUDY    30  27  88 SW6       30.15S WCI  24
AKRON-CANTON   CLOUDY    28  22  78 W7        30.16R WCI  21
WOOSTER        CLOUDY    27  23  85 W7        30.17S WCI  19
MANSFIELD      CLOUDY    27  24  89 SW5       30.16S WCI  22
YOUNGSTOWN     FLURRIES  28  23  81 W7        30.14S WCI  21
$$

OHZ042-051>053-060>062-070>072-077>081-190100-
  SOUTHWEST OHIO

CITY           SKY/WX    TMP DP  RH WIND       PRES   REMARKS
CINC-COVINGTON CLOUDY    29  19  66 NW5       30.22R WCI  24
CINC-LUNKEN    CLOUDY    30  20  66 CALM      30.25R
HAMILTON       CLOUDY    29  22  75 NW5       30.24S WCI  24
DAYTON         CLOUDY    28  22  78 NW5       30.21S WCI  23
WRIGHT-PAT AFB NOT AVBL
DAYTON GENERAL CLOUDY    28  20  71 W3        30.20S
WILMINGTON     CLOUDY    27  19  72 NW5       30.20R WCI  22
$$

OHZ036-037-039>041-045>050-054>059-063>069-073>076-082>088-190100-
  CENTRAL AND SOUTHEAST OHIO

CITY           SKY/WX    TMP DP  RH WIND       PRES   REMARKS
COLUMBUS       CLOUDY    28  21  75 W5        30.20S WCI  23
OSU AIRPORT    CLOUDY    28  22  78 W6        30.20R WCI  22
BOLTON FIELD   CLOUDY    27  23  86 CALM      30.21R
RICKENBACK AFB NOT AVBL
NEWARK         CLOUDY    29  22  75 W3        30.19S
MARION         CLOUDY    28  22  78 W7        30.19R WCI  21
LANCASTER      CLOUDY    28  22  78 SW3       30.20F
ZANESVILLE     CLOUDY    26  23  88 CALM      30.20R FOG
NEW PHILLY     CLOUDY    29  22  75 CALM      30.19S
$$


USA.gov is the U.S. government's official web portal to all federal, state and local government web resources and services.